Weather Roundup
Issued by NWS Corpus Christi, TX

Home | Current Version | Previous Version | Text Only | Print | Product List | Glossary On
Versions: 1 2 3 4 5 6 7 8 9 10 11 12 13 14 15 16 17 18 19 20 21 22 23 24 25 26 27 28 29 30 31 32 33 34 35 36 37 38 39 40 41 42 43 44 45 46 47 48 49 50
861
ASUS44 KCRP 130210
HRRCRP

SOUTH TEXAS REGIONAL WEATHER ROUNDUP
NATIONAL WEATHER SERVICE CORPUS CHRISTI TX
800 PM CST FRI FEB 12 2016


TXZ229>244-130300-
...CORPUS CHRISTI AREA OBSERVATIONS...

CITY           SKY/WX    TMP DP  RH WIND       PRES   REMARKS
CORPUS CHRISTI PTCLDY    64  56  75 SE12      30.22R
NAS CORPUS CHR CLEAR     64  61  90 SE10      30.22R
ROCKPORT       CLEAR     64  59  83 S7        30.23R
KINGSVILLE NAS CLEAR     65  60  84 SE9       30.20R
ALICE          CLEAR     65  56  72 SE9       30.20R
FALFURRIAS     CLEAR     69  58  69 E7        30.19R
$$

...VICTORIA AREA OBSERVATIONS...

CITY           SKY/WX    TMP DP  RH WIND       PRES   REMARKS
VICTORIA       CLEAR     62  58  86 S8        30.23R
BEEVILLE       FAIR      65  60  83 SE6       30.21R
PLEASANTON     CLEAR     66  48  53 CALM      30.21R
SAN ANTONIO    CLEAR     68  41  37 E5        30.23R
$$

...LAREDO AREA OBSERVATIONS...

CITY           SKY/WX    TMP DP  RH WIND       PRES   REMARKS
LAREDO         CLEAR     73  39  29 NE9       30.17R
COTULLA        CLEAR     71  38  29 E8        30.19R
DEL RIO        CLEAR     69  29  22 E3        30.18R
MCALLEN        CLEAR     70  57  63 SE14G24   30.21R
HEBBRONVILLE   NOT AVBL
$$

...OTHER TEXAS OBSERVATIONS...

CITY           SKY/WX    TMP DP  RH WIND       PRES   REMARKS
BROWNSVILLE    CLEAR     62  58  86 E3        30.22R
HOUSTON        CLEAR     64  54  69 CALM      30.23R
COL. STATION   CLEAR     66  49  54 NE7       30.25R
AUSTIN         CLEAR     56  44  64 N8        30.25R
WACO           CLEAR     56  36  47 NE9       30.29R
FORT WORTH     CLEAR     57  35  43 NE6       30.31R
WICHITA FALLS  CLEAR     50  35  56 NE7       30.34R
LUBBOCK        CLEAR     52  28  39 SE12      30.32R
EL PASO        PTCLDY    62  13  14 E6        30.24R
$$

...MARINE OBSERVATIONS...

STATION/POSITION TIME  SKY/WX   TEMP    WIND        PRES    VSBY  WAVE   SWELL
                                AIR SEA DIR/SP/G                  HT/PER HT/PER
                 (UTC)          (F)     (DEG/KT/KT) (MB)    (MI)  (FT/S) (FT/S)
PORT ARANSAS     0200            64 65  130/  9/ 10 1024.5R
BUOY 90 E PORT A 0150            68 67  150/  2/  2 1024.4R         3/ 6   2/ 6
BUOY 45 SE BAFFI 0150            67 65  160/  8/  8 1023.4R         2/ 6   2/ 6
BUOY 200 E PT IS 0150                                 N/A           2/ 5   2/ 5
BUOY 15 E GALVES 0150            62 61  190/  8/ 10 1024.2R         2/ 6   2/ 6
$$




USA.gov is the U.S. government's official web portal to all federal, state and local government web resources and services.